Back to catalog

METEOR 1-14

AliveWeatherPO
NORAD 6392·PAYLOAD·🇷🇺 Russia

Launched Mar 20, 1973 from Plesetsk Cosmodrome

Loading…

Next Passes (next 24 hours)

TLE

FreshSource: Space-Track

Epoch: Sep 14, 2026, 13:37 UTC

1 06392U 73015A   26257.56776638 -.00000008  00000-0 -11294-4 0  9997
2 06392  81.2350 201.2827 0052129 307.2787  52.3635 14.08104627745278

Track METEOR 1-14 in real time with AllMySat

Download on the App Store